TimeAST,TemperatureF,Dew PointF,Humidity,Sea Level PressureIn,VisibilityMPH,Wind Direction,Wind SpeedMPH,Gust SpeedMPH,PrecipitationIn,Events,Conditions,WindDirDegrees,DateUTC
12:00 AM,45.0,-9999,N/A,29.71,-9999.0,WSW,10.4,-,N/A,,Unknown,250,2012-11-05 04:00:00
1:00 AM,44.1,-9999,N/A,29.72,-9999.0,WSW,9.2,-,N/A,,Unknown,250,2012-11-05 05:00:00
2:00 AM,43,,,29.73,,WSW,9.2,,,,,240,2012-11-05 06:00:00
2:00 AM,43.3,-9999,N/A,29.73,-9999.0,WSW,9.2,-,N/A,,Unknown,240,2012-11-05 06:00:00
3:00 AM,43.5,-9999,N/A,29.74,-9999.0,WSW,10.4,-,N/A,,Unknown,240,2012-11-05 07:00:00
4:00 AM,43.7,-9999,N/A,29.76,-9999.0,WSW,11.5,-,N/A,,Unknown,250,2012-11-05 08:00:00
5:00 AM,43.7,-9999,N/A,29.78,-9999.0,WSW,11.5,-,N/A,,Unknown,240,2012-11-05 09:00:00
6:00 AM,43.3,-9999,N/A,29.80,-9999.0,WSW,11.5,-,N/A,,Unknown,240,2012-11-05 10:00:00
7:00 AM,43.0,-9999,N/A,29.82,-9999.0,WSW,10.4,-,N/A,,Unknown,240,2012-11-05 11:00:00
8:00 AM,43,,,29.84,,WSW,13.8,,,,,250,2012-11-05 12:00:00
8:00 AM,43.3,-9999,N/A,29.84,-9999.0,WSW,13.8,-,N/A,,Unknown,250,2012-11-05 12:00:00
9:00 AM,44.2,-9999,N/A,29.86,-9999.0,WSW,10.4,-,N/A,,Unknown,250,2012-11-05 13:00:00
10:00 AM,46.2,-9999,N/A,29.86,-9999.0,WNW,13.8,-,N/A,,Unknown,290,2012-11-05 14:00:00
11:00 AM,44.8,-9999,N/A,29.88,-9999.0,WNW,13.8,-,N/A,,Unknown,290,2012-11-05 15:00:00
12:00 PM,45.5,-9999,N/A,29.88,-9999.0,WNW,11.5,-,N/A,,Unknown,290,2012-11-05 16:00:00
1:00 PM,46.2,-9999,N/A,29.89,-9999.0,West,9.2,-,N/A,,Unknown,280,2012-11-05 17:00:00
2:00 PM,46,,,29.89,,West,8.1,,,,,280,2012-11-05 18:00:00
2:00 PM,46.2,-9999,N/A,29.89,-9999.0,West,8.1,-,N/A,,Unknown,280,2012-11-05 18:00:00
3:00 PM,46.0,-9999,N/A,29.90,-9999.0,WNW,3.5,-,N/A,,Unknown,290,2012-11-05 19:00:00
4:00 PM,45.9,-9999,N/A,29.91,-9999.0,WSW,2.3,-,N/A,,Unknown,240,2012-11-05 20:00:00
5:00 PM,45.7,-9999,N/A,29.93,-9999.0,SSW,3.5,-,N/A,,Unknown,200,2012-11-05 21:00:00
6:00 PM,45.3,-9999,N/A,29.92,-9999.0,WSW,2.3,-,N/A,,Unknown,240,2012-11-05 22:00:00
7:00 PM,43.7,-9999,N/A,29.93,-9999.0,SW,2.3,-,N/A,,Unknown,220,2012-11-05 23:00:00
8:00 PM,46,,,29.91,,North,6.9,,,,,0,2012-11-06 00:00:00
8:00 PM,45.9,-9999,N/A,29.91,-9999.0,North,6.9,-,N/A,,Unknown,360,2012-11-06 00:00:00
9:00 PM,45.7,-9999,N/A,29.91,-9999.0,NE,5.8,-,N/A,,Unknown,50,2012-11-06 01:00:00
10:00 PM,45.5,-9999,N/A,29.89,-9999.0,NE,6.9,-,N/A,,Unknown,40,2012-11-06 02:00:00
11:00 PM,44.6,-9999,N/A,29.86,-9999.0,NNE,8.1,-,N/A,,Unknown,30,2012-11-06 03:00:00